Change the Weather History Date:

Tuesday, October 16, 2012

  Actual Average Record
Temperature  
Mean Temperature 85 °F 76 °F  
Max Temperature 99 °F 89 °F 107 °F (1958)
Min Temperature 71 °F 62 °F 46 °F (1966)
Degree Days  
Heating Degree Days 0 0  
Month to date heating degree days 0 0  
Since 1 July heating degree days 0 0  
Cooling Degree Days 20 11  
Month to date cooling degree days 259 212  
Year to date cooling degree days 4446 3938  
Growing Degree Days 36 (Base 50)    
Moisture  
Dew Point 38 °F    
Average Humidity 20    
Maximum Humidity 29    
Minimum Humidity 10    
Precipitation  
Precipitation 0.00 in 0.01 in 0.50 in (1936)
Month to date precipitation 0.00 0.18  
Year to date precipitation 1.82 4.07  
Since 1 July precipitation 1.03 1.13  
Snow  
Snow 0.00 in - - ()
Month to date snowfall 0.0  
Year to date snowfall 0.0  
Since 1 July snowfall 0.0  
Snow Depth 0.00 in    
Sea Level Pressure  
Sea Level Pressure 29.76 in    
Wind  
Wind Speed 6 mph (NNW)    
Max Wind Speed 14 mph    
Max Gust Speed 16 mph    
Visibility 10 miles    
Events      
T = Trace of Precipitation, MM = Missing Value Source: NWS Daily Summary

Daily Weather History Graph

Daily Weather History Graph

Search for Another Location

Airport or City:

Trip Planner

Search our weather history database for the weather conditions in past years. The results will help you decide how hot, cold, wet, or windy it might be!

Date:

Astronomy

Oct. 16, 2012 Rise Set
Actual Time 6:52 AM PDT 6:10 PM PDT
Civil Twilight 6:27 AM PDT 6:35 PM PDT
Nautical Twilight 5:57 AM PDT 7:04 PM PDT
Astronomical Twilight 5:29 AM PDT 7:33 PM PDT
Moon 8:14 AM PDT (10/16) 7:05 PM PDT (10/16)
Length of Visible Light 12h 08m
Length of Day
11h 17m
New Moon, 2% of the Moon is Illuminated
Oct 16
New Moon
Oct 21
First Quarter
Oct 29
Full
Nov 6
Last Quarter
Nov 13
New

Hourly Weather History & Observations

Time (PDT) Temp. Dew Point Humidity Pressure Visibility Wind Dir Wind Speed Gust Speed Precip Events Conditions
12:53 AM 77.0 °F 39.9 °F 26% 29.83 in 10.0 mi NNW 9.2 mph - N/A   Clear
1:53 AM 77.0 °F 41.0 °F 28% 29.83 in 10.0 mi NNW 11.5 mph - N/A   Clear
3:53 AM 73.9 °F 37.9 °F 27% 29.81 in 10.0 mi NNW 8.1 mph - N/A   Clear
5:53 AM 73.9 °F 37.9 °F 27% 29.81 in 10.0 mi NW 10.4 mph - N/A   Clear
6:53 AM 73.9 °F 37.9 °F 27% 29.81 in 10.0 mi NW 6.9 mph - N/A   Clear
7:53 AM 73.9 °F 39.0 °F 28% 29.83 in 10.0 mi NW 9.2 mph - N/A   Clear
8:53 AM 81.0 °F 37.9 °F 21% 29.83 in 10.0 mi NNW 4.6 mph - N/A   Clear
9:53 AM 84.9 °F 48.0 °F 28% 29.83 in 10.0 mi Calm Calm - N/A   Clear
10:53 AM 91.9 °F 34.0 °F 13% 29.81 in 10.0 mi Calm Calm - N/A   Clear
11:53 AM 95.0 °F 34.0 °F 12% 29.79 in 10.0 mi ESE 4.6 mph - N/A   Clear
12:53 PM 96.1 °F 35.1 °F 12% 29.76 in 10.0 mi SSE 5.8 mph - N/A   Clear
1:53 PM 97.0 °F 30.0 °F 9% 29.72 in 10.0 mi Calm Calm - N/A   Clear
2:53 PM 98.1 °F 32.0 °F 10% 29.70 in 10.0 mi Variable 3.5 mph - N/A   Clear
3:53 PM 97.0 °F 39.0 °F 13% 29.69 in 10.0 mi East 9.2 mph - N/A   Clear
4:53 PM 95.0 °F 37.0 °F 13% 29.68 in 10.0 mi ESE 11.5 mph - N/A   Clear
5:53 PM 91.0 °F 39.9 °F 17% 29.69 in 10.0 mi East 6.9 mph - N/A   Clear
6:53 PM 88.0 °F 42.1 °F 20% 29.71 in 10.0 mi Calm Calm - N/A   Clear
7:53 PM 84.0 °F 44.1 °F 25% 29.73 in 10.0 mi Calm Calm - N/A   Clear
8:53 PM 80.1 °F 37.9 °F 22% 29.74 in 10.0 mi NNW 4.6 mph - N/A   Clear
9:53 PM 79.0 °F 35.1 °F 20% 29.74 in 10.0 mi NNW 5.8 mph - N/A   Clear
10:53 PM 79.0 °F 37.9 °F 23% 29.73 in 10.0 mi NW 6.9 mph - N/A   Clear
11:53 PM 77.0 °F 39.0 °F 25% 29.73 in 10.0 mi NNW 5.8 mph - N/A   Clear